Location: Betra
(48.4113°N, 8.6634°E)
Time: 18:00:01
(UTC+00:00)

MSX - Pass Details

Date: 23 May 2024
Orbit: 893 x 906 km, 99.0° (Epoch: 16 June)

Event Time Altitude Azimuth Distance (km) Brightness Sun altitude
Rises 02:03:04 0° 11° (N) 3,526 8.1 -12.1°
Reaches altitude 10° 02:05:32 10° 7° (N) 2,580 7.2 -11.9°
Maximum altitude 02:11:04 52° 293° (WNW) 1,103 4.2 -11.3°
Enters shadow 02:15:50 14° 220° (SW) 2,283 5.3 -10.8°
